Content
SEND FEEDBACK

Daily
Averages
Monthly
Summary
United States of America

WINDSOR, COLORADO


Home > North America > United States > Colorado
Elevation: 4809 feet     Latitude: 40 29N     Longitude: 104 54W

WEATHER
 
SELECT A DAY
Number of Records: 446,983;   Date Range: 1/1/95 - 9/3/14
 
SHARE

PRINT THIS DATA

[ ← Previous Day ]
WEATHER ALMANAC - JANUARY 31, 2013
[ Next Day → ]
[ °C ]   °F
Weather ElementAverageHighLow
Temperature30.2 °F42.8 °F (2:35 pm)19.4 °F (7:35 am)
Dewpoint19.5 °F24.8 °F (10:55 am)14 °F (4:15 am)
Humidity66.6 %100 % (11:55 pm)42 % (2:55 pm)
Barometer30.04 in30.14 in (9:15 pm)29.86 in (12:35 am)
Wind Speed8.1 mph19.6 mph (12:15 pm)
Wind Gust21.9 mph (3:55 am)
Weather ElementAverage
Visibility10 mi
Wind DirectionSE (135.3 °)

Weather ElementTotal
Precipitation---
Heating Degree Days33.9 (Base 65)
Averaged from 62 records on January 31, 2013
WEATHER CONDITIONS BREAKOUT
WIND DIRECTION BREAKOUT
WEATHER BY HOUR - JANUARY 31, 2013
[ °C ]   °F
Local TimeTemperatureDewpointHumidityBarometerVisibilityWind DirectionWind SpeedGust SpeedPrecipitationEventsConditions
12:35 AM26.6 °F15.8 °F64 %29.86 in10.0 miSE (130°)9.2 mphClear
12:55 AM30.2 °F15.8 °F55 %29.86 in10.0 miESE (120°)11.5 mphPartly Cloudy
1:15 AM30.2 °F17.6 °F60 %29.86 in10.0 miSE (140°)5.8 mphPartly Cloudy
1:35 AM30.2 °F15.8 °F55 %29.87 in10.0 miSE (130°)5.8 mphPartly Cloudy
1:55 AM30.2 °F15.8 °F55 %29.87 in10.0 miSouth (170°)6.9 mphPartly Cloudy
2:15 AM30.2 °F15.8 °F55 %29.86 in10.0 miSE (130°)5.8 mphClear
2:35 AM32.0 °F15.8 °F51 %29.88 in10.0 miNorth (10°)6.9 mphMostly Cloudy
2:55 AM33.8 °F15.8 °F48 %29.88 in10.0 miSSE (160°)3.5 mphPartly Cloudy
3:15 AM33.8 °F15.8 °F48 %29.88 in10.0 miWSW (250°)4.6 mphClear
3:55 AM37.4 °F17.6 °F45 %29.90 in10.0 miWNW (290°)13.8 mph21.9 mphPartly Cloudy
4:15 AM32.0 °F14.0 °F48 %29.91 in10.0 miEast (80°)8.1 mphPartly Cloudy
4:35 AM30.2 °F15.8 °F55 %29.91 in10.0 miEast (100°)10.4 mphScattered Clouds
4:55 AM26.6 °F17.6 °F69 %29.92 in10.0 miEast (90°)12.7 mphPartly Cloudy
5:15 AM24.8 °F17.6 °F74 %29.92 in10.0 miESE (110°)8.1 mphClear
5:55 AM23.0 °F17.6 °F80 %29.94 in10.0 miESE (120°)12.7 mphClear
6:15 AM21.2 °F17.6 °F86 %29.96 in10.0 miESE (110°)13.8 mphClear
6:35 AM21.2 °F17.6 °F86 %29.98 in10.0 miSSE (150°)6.9 mph20.7 mphClear
6:55 AM21.2 °F15.8 °F80 %30.00 in10.0 miSE (130°)5.8 mphClear
7:35 AM19.4 °F15.8 °F86 %30.04 in10.0 miSouth (190°)3.5 mphClear
7:55 AM21.2 °F17.6 °F86 %30.06 in10.0 miSSW (210°)4.6 mphClear
8:15 AM21.2 °F17.6 °F86 %30.07 in10.0 miSW (230°)6.9 mphClear
8:35 AM24.8 °F19.4 °F80 %30.08 in10.0 miSW (230°)6.9 mphClear
8:55 AM24.8 °F21.2 °F86 %30.09 in10.0 miSSW (200°)6.9 mphMostly Cloudy
9:15 AM26.6 °F21.2 °F80 %30.09 in10.0 miSSW (210°)9.2 mphOvercast
9:35 AM28.4 °F21.2 °F74 %30.09 in10.0 miSSW (200°)9.2 mphOvercast
9:55 AM28.4 °F21.2 °F74 %30.08 in10.0 miSSW (200°)11.5 mphOvercast
10:15 AM30.2 °F21.2 °F69 %30.08 in10.0 miSSW (200°)12.7 mphMostly Cloudy
10:35 AM33.8 °F23.0 °F65 %30.08 in10.0 miSouth (170°)12.7 mphPartly Cloudy
10:55 AM33.8 °F24.8 °F70 %30.09 in10.0 miSSE (160°)10.4 mphClear
11:15 AM37.4 °F24.8 °F60 %30.10 in10.0 miSouth (170°)10.4 mphPartly Cloudy
11:35 AM37.4 °F23.0 °F56 %30.10 in10.0 miESE (110°)13.8 mphMostly Cloudy
12:15 PM35.6 °F23.0 °F60 %30.09 in10.0 miEast (90°)19.6 mphOvercast
12:35 PM35.6 °F23.0 °F60 %30.09 in10.0 miEast (100°)13.8 mphOvercast
12:55 PM35.6 °F23.0 °F60 %30.08 in10.0 miEast (100°)13.8 mphOvercast
1:15 PM37.4 °F23.0 °F56 %30.08 in10.0 miEast (100°)12.7 mphOvercast
1:35 PM39.2 °F21.2 °F49 %30.08 in10.0 miESE (110°)10.4 mphMostly Cloudy
2:15 PM41.0 °F21.2 °F45 %30.08 in10.0 miSE (130°)8.1 mphScattered Clouds
2:35 PM42.8 °F23.0 °F46 %30.08 in10.0 miESE (120°)12.7 mphPartly Cloudy
2:55 PM42.8 °F21.2 °F42 %30.08 in10.0 miESE (110°)10.4 mphPartly Cloudy
3:15 PM42.8 °F23.0 °F46 %30.08 in10.0 miESE (110°)9.2 mphClear
3:35 PM42.8 °F21.2 °F42 %30.08 in10.0 miEast (80°)8.1 mphClear
3:55 PM41.0 °F21.2 °F45 %30.07 in10.0 miEast (100°)11.5 mphClear
4:15 PM39.2 °F21.2 °F49 %30.07 in10.0 miEast (90°)9.2 mphClear
4:35 PM39.2 °F21.2 °F49 %30.08 in10.0 miEast (90°)8.1 mphClear
4:55 PM37.4 °F21.2 °F52 %30.08 in10.0 miEast (100°)5.8 mphClear
5:15 PM35.6 °F19.4 °F52 %30.08 in10.0 miSE (130°)4.6 mphClear
5:35 PM33.8 °F19.4 °F56 %30.09 in10.0 miCalmClear
6:15 PM28.4 °F19.4 °F69 %30.09 in10.0 miSE (140°)5.8 mphClear
6:35 PM26.6 °F21.2 °F80 %30.10 in10.0 miSSE (160°)3.5 mphClear
6:55 PM26.6 °F21.2 °F80 %30.10 in10.0 miSE (140°)6.9 mphClear
7:15 PM24.8 °F19.4 °F80 %30.11 in10.0 miSSW (210°)5.8 mphClear
7:35 PM26.6 °F21.2 °F80 %30.11 in10.0 miCalmClear
7:55 PM28.4 °F23.0 °F80 %30.12 in10.0 miCalmClear
8:15 PM26.6 °F19.4 °F74 %30.13 in10.0 miNNE (20°)4.6 mphClear
8:35 PM26.6 °F19.4 °F74 %30.13 in10.0 miNNE (20°)4.6 mphClear
9:15 PM26.6 °F21.2 °F80 %30.14 in10.0 miNNE (30°)8.1 mphClear
9:55 PM24.8 °F21.2 °F86 %30.14 in10.0 miNE (50°)6.9 mphClear
10:15 PM23.0 °F17.6 °F80 %30.13 in10.0 miENE (70°)5.8 mphClear
10:35 PM19.4 °F15.8 °F86 %30.13 in10.0 miNorth (360°)4.6 mphClear
11:15 PM19.4 °F17.6 °F93 %30.12 in10.0 miNorth (10°)3.5 mphClear
11:35 PM19.4 °F17.6 °F93 %30.12 in10.0 miNorth (360°)5.8 mphClear
11:55 PM19.4 °F19.4 °F100 %30.11 in10.0 miNorth (360°)5.8 mphClear
Hourly data recorded from KFNL, located miles away from Windsor, Colorado







STORIES FROM OUR PARTNERS